Sélectionnez une autre période ( cacher cette zone )

Les unités Période Gamme personnalisée Directement à
métriques impériales les deux
par jour par semaine mensuel annuel
utiliser les deux sélecteurs de date pour une gamme personnalisée
précédente Jour
Avec cette date
par jour Résumé pour Samedi Jun 15 2024
Temps Temp. ( °C ) Pt. de rosée ( °C ) Vent ( km/h ) De Rafale ( km/h ) Pression baro ( hPa ) Humid.( % ) Débit de pluie ( cm ) Solaire ( W/m2 )
Élevé17,5 15,6 40,0 ONO ( 319/951 ) 58,0 1015,2 92 2,79 659
Moyenne13,9 11,6 8,6 SO #18/111 18,3 1013,0 87 2,20 196 #37/111
Basse11,2 9,4 -   2,0 1010,5 77 -  
par jour Détails du tableau pour Samedi Jun 15 2024
Temps Temp. ( °C ) Pt. de rosée ( °C ) Vent ( km/h ) De Rafale ( km/h ) Pression baro ( hPa ) Humid.( % ) Débit de pluie ( cm ) Solaire ( W/m2 )
00:00 17,5 15,6 5,0 North 5,0 1010,5 91 0,76 -
00:05 17,4 15,6 2,0 North 5,0 1010,7 91 0,51 -
00:10 17,3 15,6   calme 5,0 1010,7 91 0,51 -
00:15 17,3 15,6   calme 2,0 1010,8 91 0,51 -
00:20 17,3 15,6 3,0 North 3,0 1010,9 91 0,51 -
00:25 17,2 15,6 5,0 ONO 6,0 1011,2 92 0,51 -
00:30 17,2 15,6 16,0 North 16,0 1011,3 91 0,51 -
00:35 16,6 14,4 8,0 NNO 31,0 1011,4 89 1,02 -
00:40 15,8 13,3 27,0 Ouest 34,0 1011,3 87 1,52 -
00:45 15,2 13,3 13,0 North 39,0 1011,3 88 2,03 -
00:50 14,8 12,8 23,0 ONO 39,0 1011,1 88 2,29 -
00:55 14,6 12,2 18,0 ONO 42,0 1011,1 88 2,29 -
01:00 14,3 12,2 23,0 ONO 48,0 1011,0 88 2,54 -
01:05 14,2 12,2 26,0 ONO 58,0 1011,2 88 2,79 -
01:10 14,0 11,7 16,0 NO 58,0 1011,0 87 2,54 -
01:15 13,9 11,7 34,0 ONO 53,0 1010,6 87 2,54 -
01:20 14,0 11,7 26,0 ONO 52,0 1010,8 86 2,54 -
01:25 13,9 11,1 21,0 ONO 50,0 1010,9 85 2,29 -
01:30 13,9 11,1 21,0 ONO 50,0 1010,9 85 2,29 -
01:35 14,1 11,1 32,0 ONO 48,0 1010,9 84 2,03 -
01:40 14,1 11,1 26,0 NO 48,0 1010,9 83 1,52 -
01:45 14,1 11,1 21,0 NO 47,0 1011,2 84 1,02 -
01:50 14,1 11,1 39,0 NO 50,0 1011,0 83 0,51 -
01:55 14,0 11,1 23,0 NNO 50,0 1011,1 84 0,51 -
02:00 13,9 11,1 37,0 ONO 44,0 1010,5 85 0,51 -
02:05 13,8 11,1 40,0 Ouest 48,0 1010,8 84 0,51 -
02:10 13,7 10,6 21,0 NO 48,0 1010,6 84 0,51 -
02:15 13,6 10,6 29,0 ONO 56,0 1010,6 83 0,76 -
02:20 13,4 10,6 31,0 Ouest 56,0 1010,6 84 1,02 -
02:25 13,4 10,6 16,0 NO 48,0 1010,7 84 1,02 -
02:30 13,5 10,6 15,0 Ouest 45,0 1010,9 84 1,27 -
02:35 13,6 10,6 23,0 OSO 45,0 1011,5 84 1,52 -
02:40 13,5 10,6 10,0 OSO 34,0 1012,0 84 1,52 -
02:45 13,3 10,6 24,0 ONO 39,0 1012,1 83 1,52 -
02:50 13,3 10,6 8,0 NO 39,0 1012,1 83 1,52 -
02:55 13,3 10,6 2,0 OSO 31,0 1012,0 84 1,52 -
03:00 13,4 10,6 18,0 OSO 23,0 1011,9 83 1,27 -
03:05 13,6 10,6 3,0 ESE 23,0 1012,1 84 1,27 -
03:10 13,6 11,1 3,0 Sud 18,0 1012,0 85 1,02 -
03:15 13,5 11,1 2,0 Sud 15,0 1012,1 85 0,76 -
03:20 13,6 11,1 15,0 SE 19,0 1012,1 85 0,51 -
03:25 13,6 11,1 5,0 SE 19,0 1012,1 86 0,51 -
03:30 13,6 11,1 6,0 SSE 18,0 1012,0 86 0,51 -
03:35 13,5 11,1 2,0 SSE 18,0 1012,3 87 0,25 -
03:40 13,6 11,1   calme 10,0 1012,4 87 0,25 -
03:45 13,4 11,1   calme 5,0 1012,3 87 - -
03:50 13,4 11,1 2,0 SO 8,0 1012,8 88 - -
03:55 13,4 11,1 6,0 Sud 8,0 1012,8 88 0,25 -
04:00 13,5 11,1 2,0 SO 15,0 1012,9 88 0,51 -
04:05 13,5 11,7 2,0 SSO 15,0 1012,7 88 0,51 -
04:10 13,4 11,1 3,0 SO 13,0 1012,8 88 0,76 -
04:15 13,3 11,1 2,0 SSE 13,0 1012,7 88 1,02 -
04:20 13,3 11,1 6,0 SSO 6,0 1012,7 88 1,02 -
04:25 13,2 11,1   calme 8,0 1012,9 88 1,02 -
04:30 13,2 11,1   calme 8,0 1013,1 88 1,02 -
04:35 13,2 11,1   calme 3,0 1012,9 89 1,02 -
04:40 13,1 11,1   calme 3,0 1013,2 89 1,02 -
04:45 13,1 11,1   calme 5,0 1013,3 90 1,02 -
04:50 13,0 11,1 2,0 SO 5,0 1013,3 90 1,02 -
04:55 12,9 11,1 2,0 SO 3,0 1013,4 91 0,76 -
05:00 12,9 11,1 2,0 SO 5,0 1013,6 91 0,51 -
05:05 12,9 11,1   calme 5,0 1013,5 91 0,51 -
05:10 12,8 11,1 3,0 SO 3,0 1013,4 91 0,25 -
05:15 12,7 11,1 2,0 SO 5,0 1013,6 91 - -
05:20 12,6 11,1 3,0 SO 5,0 1013,6 91 - -
05:25 12,4 10,6   calme 5,0 1013,7 91 - -
05:30 12,3 10,6 2,0 SO 5,0 1013,8 91 - -
05:35 12,2 10,6 2,0 SO 3,0 1013,7 91 - -
05:40 12,1 10,6   calme 5,0 1013,8 91 - -
05:45 11,9 10,6 3,0 SO 5,0 1013,9 91 - -
05:50 11,8 10,0 5,0 SO 5,0 1013,9 91 - -
05:55 11,7 10,0 5,0 SO 5,0 1013,9 91 - -
06:00 11,7 10,0 5,0 SO 6,0 1014,1 92 - -
06:05 11,7 10,6   calme 6,0 1014,0 92 - -
06:10 11,8 10,6 3,0 SO 6,0 1014,1 92 - 7
06:15 11,6 10,0 3,0 SO 5,0 1014,1 91 - 7
06:20 11,4 10,0 3,0 Ouest 6,0 1014,3 91 - 9
06:25 11,4 10,0 3,0 Ouest 6,0 1014,2 91 - 11
06:30 11,3 10,0   calme 6,0 1014,3 91 - 12
06:35 11,3 10,0 2,0 Ouest 5,0 1014,3 91 - 18
06:40 11,2 9,4 3,0 Ouest 5,0 1014,5 91 - 23
06:45 11,2 9,4 2,0 Ouest 5,0 1014,4 91 - 25
06:50 11,4 10,0 5,0 Ouest 6,0 1014,3 91 - 28
06:55 11,8 10,0 10,0 Ouest 6,0 1014,3 90 - 72
07:00 12,2 10,6 2,0 Ouest 11,0 1014,5 89 - 74
07:05 12,4 10,6 3,0 Ouest 11,0 1014,6 89 - 123
07:10 12,8 10,6   calme 6,0 1014,6 89 - 42
07:15 13,0 10,6 2,0 Ouest 6,0 1014,7 87 - 102
07:20 13,2 11,1 3,0 Ouest 5,0 1014,7 87 - 160
07:25 13,6 11,1 3,0 Ouest 5,0 1014,9 86 - 179
07:30 14,1 11,7 5,0 SSE 8,0 1014,9 88 - 251
07:35 14,3 12,2 2,0 SSE 8,0 1014,8 88 - 88
07:40 14,3 11,7   calme 6,0 1014,9 86 - 37
07:45 14,1 11,7 3,0 SSE 6,0 1015,1 85 - 42
07:50 14,1 11,7 5,0 SSE 6,0 1015,1 87 - 243
07:55 14,3 12,2 2,0 SSE 6,0 1015,1 87 - 257
08:00 14,7 12,2   calme 6,0 1015,0 87 - 269
08:05 15,1 12,8 3,0 SSE 6,0 1014,9 87 - 285
08:10 15,3 12,8 6,0 Sud 6,0 1014,9 85 - 302
08:15 15,5 12,8 5,0 Sud 6,0 1014,9 84 - 318
08:20 15,8 12,8 2,0 Sud 6,0 1014,9 82 - 334
08:25 16,2 12,8 10,0 SO 6,0 1014,9 82 - 346
08:30 16,5 12,8 2,0 SSO 10,0 1014,9 80 - 360
08:35 16,7 12,8 10,0 SE 11,0 1014,9 77 - 376
08:40 16,8 12,8 11,0 ESE 11,0 1015,0 79 - 390
08:45 16,8 12,8 8,0 SE 15,0 1014,9 79 - 408
08:50 16,9 13,3 6,0 SE 16,0 1014,9 80 - 490
08:55 17,2 13,3 6,0 SSE 16,0 1014,9 80 - 659
09:00 17,3 13,3 13,0 ESE 16,0 1015,0 79 - 404
09:05 17,2 13,3 5,0 SSE 16,0 1015,1 79 - 267
09:10 16,9 12,8 3,0 SE 18,0 1015,2 77 - 230
par jour Résumé pour Samedi Jun 15 2024
Temps Temp. ( °C ) Pt. de rosée ( °C ) Vent ( km/h ) De Rafale ( km/h ) Pression baro ( hPa ) Humid.( % ) Débit de pluie ( cm ) Solaire ( W/m2 )
Élevé17,5 15,6 40,0 ONO ( 319/951 ) 58,0 1015,2 92 2,79 659
Moyenne13,9 11,6 8,6 SO #18/111 18,3 1013,0 87 2,20 196 #37/111
Basse11,2 9,4 -   2,0 1010,5 77 -  
par jour Détails du tableau pour Samedi Jun 15 2024
Temps Temp. ( °C ) Pt. de rosée ( °C ) Vent ( km/h ) De Rafale ( km/h ) Pression baro ( hPa ) Humid.( % ) Débit de pluie ( cm ) Solaire ( W/m2 )
00:00 17,5 15,6 5,0 North 5,0 1010,5 91 0,76 -
00:05 17,4 15,6 2,0 North 5,0 1010,7 91 0,51 -
00:10 17,3 15,6   calme 5,0 1010,7 91 0,51 -
00:15 17,3 15,6   calme 2,0 1010,8 91 0,51 -
00:20 17,3 15,6 3,0 North 3,0 1010,9 91 0,51 -
00:25 17,2 15,6 5,0 ONO 6,0 1011,2 92 0,51 -
00:30 17,2 15,6 16,0 North 16,0 1011,3 91 0,51 -
00:35 16,6 14,4 8,0 NNO 31,0 1011,4 89 1,02 -
00:40 15,8 13,3 27,0 Ouest 34,0 1011,3 87 1,52 -
00:45 15,2 13,3 13,0 North 39,0 1011,3 88 2,03 -
00:50 14,8 12,8 23,0 ONO 39,0 1011,1 88 2,29 -
00:55 14,6 12,2 18,0 ONO 42,0 1011,1 88 2,29 -
01:00 14,3 12,2 23,0 ONO 48,0 1011,0 88 2,54 -
01:05 14,2 12,2 26,0 ONO 58,0 1011,2 88 2,79 -
01:10 14,0 11,7 16,0 NO 58,0 1011,0 87 2,54 -
01:15 13,9 11,7 34,0 ONO 53,0 1010,6 87 2,54 -
01:20 14,0 11,7 26,0 ONO 52,0 1010,8 86 2,54 -
01:25 13,9 11,1 21,0 ONO 50,0 1010,9 85 2,29 -
01:30 13,9 11,1 21,0 ONO 50,0 1010,9 85 2,29 -
01:35 14,1 11,1 32,0 ONO 48,0 1010,9 84 2,03 -
01:40 14,1 11,1 26,0 NO 48,0 1010,9 83 1,52 -
01:45 14,1 11,1 21,0 NO 47,0 1011,2 84 1,02 -
01:50 14,1 11,1 39,0 NO 50,0 1011,0 83 0,51 -
01:55 14,0 11,1 23,0 NNO 50,0 1011,1 84 0,51 -
02:00 13,9 11,1 37,0 ONO 44,0 1010,5 85 0,51 -
02:05 13,8 11,1 40,0 Ouest 48,0 1010,8 84 0,51 -
02:10 13,7 10,6 21,0 NO 48,0 1010,6 84 0,51 -
02:15 13,6 10,6 29,0 ONO 56,0 1010,6 83 0,76 -
02:20 13,4 10,6 31,0 Ouest 56,0 1010,6 84 1,02 -
02:25 13,4 10,6 16,0 NO 48,0 1010,7 84 1,02 -
02:30 13,5 10,6 15,0 Ouest 45,0 1010,9 84 1,27 -
02:35 13,6 10,6 23,0 OSO 45,0 1011,5 84 1,52 -
02:40 13,5 10,6 10,0 OSO 34,0 1012,0 84 1,52 -
02:45 13,3 10,6 24,0 ONO 39,0 1012,1 83 1,52 -
02:50 13,3 10,6 8,0 NO 39,0 1012,1 83 1,52 -
02:55 13,3 10,6 2,0 OSO 31,0 1012,0 84 1,52 -
03:00 13,4 10,6 18,0 OSO 23,0 1011,9 83 1,27 -
03:05 13,6 10,6 3,0 ESE 23,0 1012,1 84 1,27 -
03:10 13,6 11,1 3,0 Sud 18,0 1012,0 85 1,02 -
03:15 13,5 11,1 2,0 Sud 15,0 1012,1 85 0,76 -
03:20 13,6 11,1 15,0 SE 19,0 1012,1 85 0,51 -
03:25 13,6 11,1 5,0 SE 19,0 1012,1 86 0,51 -
03:30 13,6 11,1 6,0 SSE 18,0 1012,0 86 0,51 -
03:35 13,5 11,1 2,0 SSE 18,0 1012,3 87 0,25 -
03:40 13,6 11,1   calme 10,0 1012,4 87 0,25 -
03:45 13,4 11,1   calme 5,0 1012,3 87 - -
03:50 13,4 11,1 2,0 SO 8,0 1012,8 88 - -
03:55 13,4 11,1 6,0 Sud 8,0 1012,8 88 0,25 -
04:00 13,5 11,1 2,0 SO 15,0 1012,9 88 0,51 -
04:05 13,5 11,7 2,0 SSO 15,0 1012,7 88 0,51 -
04:10 13,4 11,1 3,0 SO 13,0 1012,8 88 0,76 -
04:15 13,3 11,1 2,0 SSE 13,0 1012,7 88 1,02 -
04:20 13,3 11,1 6,0 SSO 6,0 1012,7 88 1,02 -
04:25 13,2 11,1   calme 8,0 1012,9 88 1,02 -
04:30 13,2 11,1   calme 8,0 1013,1 88 1,02 -
04:35 13,2 11,1   calme 3,0 1012,9 89 1,02 -
04:40 13,1 11,1   calme 3,0 1013,2 89 1,02 -
04:45 13,1 11,1   calme 5,0 1013,3 90 1,02 -
04:50 13,0 11,1 2,0 SO 5,0 1013,3 90 1,02 -
04:55 12,9 11,1 2,0 SO 3,0 1013,4 91 0,76 -
05:00 12,9 11,1 2,0 SO 5,0 1013,6 91 0,51 -
05:05 12,9 11,1   calme 5,0 1013,5 91 0,51 -
05:10 12,8 11,1 3,0 SO 3,0 1013,4 91 0,25 -
05:15 12,7 11,1 2,0 SO 5,0 1013,6 91 - -
05:20 12,6 11,1 3,0 SO 5,0 1013,6 91 - -
05:25 12,4 10,6   calme 5,0 1013,7 91 - -
05:30 12,3 10,6 2,0 SO 5,0 1013,8 91 - -
05:35 12,2 10,6 2,0 SO 3,0 1013,7 91 - -
05:40 12,1 10,6   calme 5,0 1013,8 91 - -
05:45 11,9 10,6 3,0 SO 5,0 1013,9 91 - -
05:50 11,8 10,0 5,0 SO 5,0 1013,9 91 - -
05:55 11,7 10,0 5,0 SO 5,0 1013,9 91 - -
06:00 11,7 10,0 5,0 SO 6,0 1014,1 92 - -
06:05 11,7 10,6   calme 6,0 1014,0 92 - -
06:10 11,8 10,6 3,0 SO 6,0 1014,1 92 - 7
06:15 11,6 10,0 3,0 SO 5,0 1014,1 91 - 7
06:20 11,4 10,0 3,0 Ouest 6,0 1014,3 91 - 9
06:25 11,4 10,0 3,0 Ouest 6,0 1014,2 91 - 11
06:30 11,3 10,0   calme 6,0 1014,3 91 - 12
06:35 11,3 10,0 2,0 Ouest 5,0 1014,3 91 - 18
06:40 11,2 9,4 3,0 Ouest 5,0 1014,5 91 - 23
06:45 11,2 9,4 2,0 Ouest 5,0 1014,4 91 - 25
06:50 11,4 10,0 5,0 Ouest 6,0 1014,3 91 - 28
06:55 11,8 10,0 10,0 Ouest 6,0 1014,3 90 - 72
07:00 12,2 10,6 2,0 Ouest 11,0 1014,5 89 - 74
07:05 12,4 10,6 3,0 Ouest 11,0 1014,6 89 - 123
07:10 12,8 10,6   calme 6,0 1014,6 89 - 42
07:15 13,0 10,6 2,0 Ouest 6,0 1014,7 87 - 102
07:20 13,2 11,1 3,0 Ouest 5,0 1014,7 87 - 160
07:25 13,6 11,1 3,0 Ouest 5,0 1014,9 86 - 179
07:30 14,1 11,7 5,0 SSE 8,0 1014,9 88 - 251
07:35 14,3 12,2 2,0 SSE 8,0 1014,8 88 - 88
07:40 14,3 11,7   calme 6,0 1014,9 86 - 37
07:45 14,1 11,7 3,0 SSE 6,0 1015,1 85 - 42
07:50 14,1 11,7 5,0 SSE 6,0 1015,1 87 - 243
07:55 14,3 12,2 2,0 SSE 6,0 1015,1 87 - 257
08:00 14,7 12,2   calme 6,0 1015,0 87 - 269
08:05 15,1 12,8 3,0 SSE 6,0 1014,9 87 - 285
08:10 15,3 12,8 6,0 Sud 6,0 1014,9 85 - 302
08:15 15,5 12,8 5,0 Sud 6,0 1014,9 84 - 318
08:20 15,8 12,8 2,0 Sud 6,0 1014,9 82 - 334
08:25 16,2 12,8 10,0 SO 6,0 1014,9 82 - 346
08:30 16,5 12,8 2,0 SSO 10,0 1014,9 80 - 360
08:35 16,7 12,8 10,0 SE 11,0 1014,9 77 - 376
08:40 16,8 12,8 11,0 ESE 11,0 1015,0 79 - 390
08:45 16,8 12,8 8,0 SE 15,0 1014,9 79 - 408
08:50 16,9 13,3 6,0 SE 16,0 1014,9 80 - 490
08:55 17,2 13,3 6,0 SSE 16,0 1014,9 80 - 659
09:00 17,3 13,3 13,0 ESE 16,0 1015,0 79 - 404
09:05 17,2 13,3 5,0 SSE 16,0 1015,1 79 - 267
09:10 16,9 12,8 3,0 SE 18,0 1015,2 77 - 230

Téléchargez votre copie de cet ensemble de données  à partir de WeatherUnderground

Nos données météo stockées sur Weather Underground. Script développé par Jim McMurry. Réécrit pour l'utilisation du modèle Leuven-Template